Temperature
15 15 16 17 20 21 21 22 22 22 22 22 21 22 24 25 25 23 19 18 18 18 16 17 17 16 16 16 16 16 16 16 16 16 16 16 16 15 15 15 16 16 15 15 15 15 15 16 16
14 15 16 18 20 20 21 21 21 22 21 20 20 21 23 23 20 18 18 17 18 17 16 16 16 16 16 16 16 16 16 16 16 16 16 16 16 16 16 16 16 16 16 16 15 16 15 15 15
14 15 16 19 19 21 21 21 21 21 19 20 21 21 22 21 18 17 17 17 17 17 16 16 16 16 16 16 16 16 16 16 16 16 16 16 16 16 16 16 16 16 16 16 16 15 15 15 15
13 15 17 19 19 20 21 21 21 21 20 20 21 21 20 17 17 17 18 17 16 16 16 16 16 16 16 16 16 16 16 16 16 16 16 16 16 16 16 16 16 16 16 16 16 15 15 15 15
13 15 17 18 19 20 20 20 20 21 21 20 21 22 20 17 17 17 17 16 16 16 16 16 16 16 16 16 16 16 16 16 16 16 16 16 16 16 16 16 16 16 16 16 16 15 15 15 15
13 15 16 17 19 20 20 19 19 21 21 20 21 21 18 16 17 16 16 16 16 16 16 16 16 16 16 16 16 16 16 16 16 16 16 16 16 16 16 16 16 16 16 16 16 15 15 15 15
14 15 17 18 19 19 19 18 20 21 21 20 20 21 18 16 16 16 16 16 16 16 16 16 16 16 16 16 16 16 16 17 17 16 16 16 16 16 16 16 16 16 16 16 16 16 15 15 15
13 15 16 18 19 19 19 18 18 20 20 18 19 21 18 16 16 16 15 15 15 15 15 15 15 15 15 15 16 16 16 17 17 16 16 16 16 16 16 16 16 16 16 16 16 16 15 15 15
12 14 15 17 18 19 19 18 18 17 18 17 17 18 17 16 16 16 15 15 15 15 15 15 15 15 15 15 15 16 16 16 16 16 16 16 16 15 16 16 16 16 16 16 16 16 15 15 15
12 14 16 18 18 19 18 18 18 18 19 18 17 16 16 16 16 15 15 15 15 15 15 15 15 15 15 15 15 15 16 16 16 16 16 16 15 15 15 16 16 16 16 16 16 15 15 15 14
13 15 16 16 16 17 17 17 17 18 19 19 18 16 16 16 16 16 15 15 15 15 15 15 15 15 15 15 15 15 15 16 16 16 16 16 16 16 16 15 16 16 15 15 15 15 15 14 14
13 14 15 15 14 15 17 17 17 18 18 17 17 16 16 16 16 16 15 15 15 15 15 15 15 15 15 15 15 15 15 16 16 16 16 16 16 16 15 15 15 15 15 15 15 14 14 14 14
13 13 13 14 14 15 15 16 17 17 16 16 16 16 16 16 16 16 16 15 15 15 15 15 15 15 15 15 15 15 15 15 16 16 16 16 16 16 15 15 15 15 14 14 14 14 14 14 14
12 13 13 13 14 14 15 16 16 16 16 16 16 16 16 16 16 16 15 15 15 15 15 15 15 15 15 15 14 14 15 15 15 16 16 16 16 15 15 15 15 15 14 14 14 14 14 14 14
11 12 13 13 14 14 15 15 16 16 16 16 16 16 16 16 16 16 16 16 16 15 15 15 15 15 15 15 14 14 14 14 15 15 15 15 15 15 15 15 15 15 14 14 14 14 14 14 14
11 11 12 13 14 14 14 15 17 15 16 16 16 16 16 16 16 16 16 16 16 15 15 15 15 15 15 15 14 14 14 14 14 14 15 15 15 15 15 15 15 14 14 14 14 14 13 13 13
10 11 11 12 14 14 14 15 17 15 15 16 16 16 16 16 16 16 16 16 16 16 16 15 15 15 15 15 15 14 14 14 14 14 14 14 14 14 14 14 14 14 14 14 14 14 13 13 13
10 11 12 12 13 13 14 15 15 15 15 16 16 16 16 16 16 16 16 16 16 16 16 15 15 15 15 15 15 14 14 14 14 14 14 14 14 14 14 14 14 14 14 14 13 13 13 13 13
10 11 11 12 13 13 13 14 15 15 15 16 16 16 16 16 16 16 16 16 16 16 16 16 15 15 15 15 15 14 14 14 14 14 14 14 14 14 14 14 14 14 13 13 13 13 13 13 12
9 10 11 11 12 12 13 14 15 15 15 15 16 16 16 16 15 16 16 16 16 16 16 16 16 15 15 15 15 15 15 15 14 14 14 14 14 14 14 14 13 13 13 13 13 13 13 12 12
9 10 10 10 11 12 12 13 14 15 14 14 15 15 15 15 15 15 15 16 16 16 16 16 16 15 15 15 15 15 15 15 14 14 14 14 14 14 14 14 13 13 13 13 13 13 12 12 12
9 9 10 10 11 11 12 13 15 15 15 15 15 15 15 15 15 15 15 15 16 16 16 16 16 15 15 15 15 15 15 15 15 15 14 14 14 14 14 14 14 13 13 13 13 13 12 12 12
8 9 9 10 11 11 11 12 15 14 14 15 16 16 15 15 14 14 15 15 15 16 16 16 16 16 16 15 15 15 15 15 15 14 14 14 14 14 14 14 13 13 13 13 13 13 12 12 12
8 8 9 9 10 10 12 12 14 15 15 16 16 16 15 14 14 14 14 15 15 15 16 16 16 16 15 15 15 15 15 15 14 14 14 14 14 14 13 13 13 13 13 13 12 12 12 12 11
8 8 8 8 9 11 12 12 13 15 15 15 15 15 14 13 13 14 14 14 15 15 15 15 15 15 15 15 15 15 14 14 14 14 14 13 13 13 13 13 13 12 12 12 12 12 12 11 11
8 8 9 10 10 11 10 11 14 14 13 12 12 12 12 12 12 13 13 14 14 15 15 15 14 14 14 14 14 14 14 14 13 13 13 13 13 13 12 12 12 12 12 12 11 11 11 11 10
7 8 9 9 9 10 11 12 13 13 13 12 12 11 11 11 11 12 12 13 13 14 14 14 14 14 14 14 14 13 13 13 13 12 12 12 12 12 11 11 11 11 11 11 11 10 10 10 10
8 8 8 8 9 10 11 12 13 13 14 13 13 12 11 10 10 10 11 12 12 12 13 12 12 13 13 13 13 12 12 12 12 12 11 11 11 11 11 10 10 10 10 10 10 10 9 9 9
7 7 8 9 9 10 11 13 13 13 13 13 13 11 10 9 9 9 10 10 11 11 11 11 11 12 12 12 11 11 11 11 11 11 10 10 10 10 10 10 9 9 9 9 9 9 8 8 8
8 8 9 8 8 9 11 13 12 12 11 11 11 10 9 9 9 8 9 9 10 10 10 10 11 11 10 10 10 10 10 10 10 10 9 9 9 9 9 8 8 8 8 8 8 7 7 7 7
Wind_Speed
5 4 3 3 6 7 14 9 5 7 5 2 1 3 3 3 2 3 5 16 18 20 23 23 22 20 19 18 18 17 16 15 14 13 13 13 13 13 13 14 15 16 16 16 16 17 16 16 15
4 3 4 5 9 13 14 10 8 6 3 1 2 3 4 2 3 5 8 15 19 21 22 22 23 21 20 19 18 16 15 14 13 12 12 12 12 13 13 14 15 15 16 16 16 15 15 14 14
4 3 5 6 11 17 13 10 9 4 2 2 3 2 1 2 3 5 9 17 19 20 20 21 23 21 20 19 17 16 15 13 12 12 11 11 12 13 14 15 15 15 15 15 14 14 13 13 13
5 5 5 10 17 15 9 8 8 6 4 3 3 4 3 3 2 5 13 18 20 19 20 21 22 21 20 18 17 16 14 13 12 11 11 11 13 14 14 15 14 14 14 14 13 13 12 12 12
4 6 11 16 20 14 9 6 6 7 5 4 3 4 4 4 2 9 16 18 19 18 19 22 21 20 19 18 17 16 14 13 12 11 11 11 13 14 14 14 14 14 13 13 12 12 12 12 12
7 7 13 20 21 15 11 7 6 6 5 3 3 4 4 3 5 12 15 16 17 17 18 20 20 20 19 18 17 16 14 12 11 11 11 12 13 13 13 13 12 12 12 11 11 11 11 11 11
10 13 19 23 20 16 12 9 8 6 5 3 2 4 4 5 7 12 14 15 15 16 16 18 19 19 19 18 17 16 15 13 11 11 11 12 13 13 12 12 11 11 11 10 10 10 9 9 9
7 10 21 22 21 18 12 9 6 7 4 2 1 3 4 5 9 11 12 13 14 14 15 16 18 17 17 16 17 16 15 13 12 11 11 13 13 12 11 11 11 10 10 9 9 9 9 8 8
7 11 20 23 21 17 12 10 6 3 4 3 2 2 4 9 11 12 11 11 13 14 14 14 15 15 15 15 15 15 14 13 12 11 12 12 10 10 9 9 10 9 9 8 8 8 8 7 7
11 16 23 18 16 14 13 11 8 7 7 4 3 4 6 10 11 12 13 14 16 16 15 13 14 14 14 13 13 12 11 12 10 10 11 9 8 7 7 10 8 7 7 7 7 6 6 4 4
11 17 16 11 10 10 11 10 8 9 8 6 4 6 8 10 10 11 12 14 15 16 15 14 13 14 14 11 11 9 9 9 9 9 10 8 7 7 7 7 8 7 7 6 6 6 4 4 2
12 13 12 9 7 8 11 10 10 10 8 5 4 6 8 9 10 11 12 13 14 15 16 14 13 13 13 12 10 10 8 8 8 9 9 8 7 7 7 6 6 6 6 5 5 4 4 4 4
13 10 10 8 6 7 8 10 10 12 8 6 5 7 8 8 9 10 11 12 13 14 15 15 14 14 13 11 9 9 9 8 9 9 9 9 7 7 7 6 6 6 5 5 5 5 4 4 4
10 10 9 8 9 7 9 10 10 11 9 8 8 9 8 9 9 10 11 13 14 14 15 15 15 15 14 11 10 9 9 9 9 9 10 10 8 7 7 6 6 6 6 5 5 5 5 5 5
8 10 9 10 10 8 9 14 16 12 9 10 10 10 10 9 9 10 11 12 13 14 14 14 14 14 14 12 12 10 10 10 9 9 10 10 9 8 7 6 6 7 7 6 6 6 6 5 5
10 11 12 11 12 10 13 19 16 11 12 13 13 12 11 11 10 10 11 11 12 12 14 14 12 13 14 12 11 10 10 10 9 9 10 11 11 10 8 7 7 7 7 7 6 5 6 6 6
10 13 15 11 12 10 15 16 12 9 12 14 14 13 12 12 11 10 10 10 11 12 13 13 13 14 14 12 10 10 10 10 9 9 9 11 12 11 10 8 8 8 7 7 6 6 6 7 7
14 15 15 14 11 14 17 16 9 7 11 14 14 14 13 13 11 9 9 9 10 11 12 13 13 13 12 10 9 7 8 8 8 9 9 10 11 12 11 9 9 9 7 7 7 8 7 7 7
8 11 12 12 9 13 17 17 14 10 11 14 14 14 14 13 10 7 7 8 9 10 11 12 12 12 10 8 8 8 8 7 7 7 9 10 10 11 11 8 9 8 8 9 9 7 8 7 6
8 10 10 7 7 10 14 17 15 15 14 14 15 15 15 13 11 8 7 7 9 10 11 11 11 11 11 9 8 6 6 6 7 6 8 9 9 10 9 9 7 7 7 9 9 8 6 6 5
9 10 11 8 7 7 8 13 17 17 17 16 15 15 15 14 13 11 9 8 8 9 10 9 10 10 10 10 7 5 4 4 5 7 6 7 8 9 9 9 8 7 7 8 9 9 10 8 7
7 6 8 9 9 7 10 9 15 17 19 19 19 17 17 15 13 11 10 9 9 8 7 8 8 9 9 9 9 10 8 8 7 6 5 5 6 7 7 8 8 7 7 8 8 8 9 9 8
3 4 6 7 8 6 9 9 9 11 17 21 21 20 18 16 14 13 11 9 8 7 7 7 7 7 7 8 9 10 9 7 5 5 5 5 4 4 5 5 6 6 6 7 7 7 8 8 9
5 5 4 3 5 8 12 11 9 10 15 16 18 19 18 16 15 13 11 8 7 7 7 7 7 7 6 7 8 8 8 7 7 6 5 5 4 3 3 4 4 5 5 6 6 6 8 7 8
7 7 5 6 7 8 7 10 10 8 9 12 13 14 15 14 14 13 13 11 9 9 8 7 8 7 7 6 6 6 6 6 7 6 5 5 4 3 3 3 3 4 4 5 5 6 6 6 7
9 7 5 5 7 5 7 10 8 5 6 8 10 10 11 12 12 13 13 12 10 10 9 9 8 7 7 6 5 5 4 4 3 4 3 3 3 2 2 3 3 3 3 4 4 4 4 4 4
7 7 2 1 1 3 6 6 8 6 7 7 7 8 9 10 11 11 11 11 11 10 9 9 8 7 7 6 5 5 4 4 4 3 3 2 2 1 2 2 2 1 1 2 2 2 2 2 2
4 5 4 4 4 5 6 7 6 6 6 5 5 6 6 7 8 9 10 10 10 9 8 8 8 7 6 6 5 4 4 3 3 3 3 2 2 2 1 1 1 0 0 0 1 1 1 2 1
7 6 5 5 4 4 4 4 1 2 3 4 3 3 4 6 8 8 9 9 9 9 9 8 8 7 6 6 5 5 4 4 3 3 2 2 1 1 1 1 1 1 1 1 1 2 2 3 3
9 9 9 6 5 4 4 3 3 1 2 3 2 1 3 5 7 8 9 9 9 9 9 8 8 7 6 6 5 5 4 4 3 3 3 2 2 2 1 1 2 2 2 2 2 3 3 4 4
Wind_Direction
288 287 256 221 206 215 217 199 192 178 182 188 258 240 227 195 190 106 117 154 148 151 153 154 151 148 145 139 135 132 129 127 124 121 118 116 115 111 105 102 102 100 99 99 97 95 93 91 90
273 253 215 212 217 212 209 196 189 178 153 181 203 214 211 164 46 97 144 153 152 152 155 158 150 149 145 141 138 134 131 128 126 123 121 119 118 115 110 106 104 102 101 99 97 95 92 90 88
231 231 210 204 219 218 204 190 185 163 164 183 167 183 202 72 84 134 153 157 155 154 157 152 151 149 146 143 140 136 133 129 127 125 124 123 121 117 113 108 107 106 104 102 99 95 91 90 90
198 192 207 217 215 217 208 174 173 168 160 161 171 149 118 47 31 139 152 159 157 156 156 152 152 148 146 144 141 138 134 132 131 129 129 128 122 118 114 110 110 111 109 106 100 95 92 90 91
206 198 204 215 217 208 205 172 172 175 162 153 175 149 116 36 43 143 154 160 158 157 155 154 152 148 147 145 142 138 136 135 135 136 136 133 125 120 118 116 116 116 113 109 103 97 93 92 92
189 199 207 211 210 202 200 191 183 177 157 148 164 147 89 54 120 145 153 160 158 156 155 155 151 148 147 146 144 141 138 137 137 140 140 135 129 126 124 123 122 121 118 113 107 100 97 96 96
203 201 213 213 208 203 199 195 202 183 169 142 153 147 106 94 128 144 151 158 158 159 158 158 159 155 151 148 146 142 140 140 140 139 137 133 129 128 129 130 128 124 122 117 110 104 103 102 101
217 208 217 217 212 208 195 190 207 208 177 115 158 150 124 125 138 141 147 157 162 164 164 163 164 163 161 156 149 143 142 141 137 134 134 134 133 132 133 138 133 129 126 124 119 113 109 108 109
201 210 214 213 213 208 193 193 191 190 160 133 88 57 100 136 142 145 150 160 168 171 171 169 167 165 164 159 152 149 146 144 144 143 141 150 155 151 151 135 135 136 132 130 127 122 118 119 120
200 215 217 216 219 211 196 199 187 178 180 172 134 94 130 149 157 161 166 171 175 178 176 175 172 167 165 159 161 162 160 161 167 160 161 169 164 158 149 136 142 140 141 141 135 132 148 177 163
204 220 217 212 214 211 197 199 199 202 206 204 182 147 150 163 172 176 179 180 181 181 179 181 177 173 170 167 168 167 167 167 171 169 170 170 167 164 169 167 164 168 172 173 160 182 196 212 217
208 216 211 202 198 204 204 203 209 220 223 211 196 163 162 172 184 189 188 186 186 185 185 183 181 179 178 172 173 174 173 173 174 177 178 178 178 183 186 189 185 188 192 191 202 212 208 224 233
211 205 206 208 201 206 203 208 216 226 223 213 187 177 183 188 195 196 196 193 193 192 190 187 186 185 181 177 178 182 182 181 180 180 187 189 189 192 192 198 199 206 208 207 215 224 226 239 246
204 200 199 203 209 213 214 220 218 225 216 210 200 199 201 204 207 205 201 200 199 199 196 191 191 190 185 184 185 189 188 186 185 187 193 196 198 197 198 203 207 214 219 224 228 234 240 248 255
191 195 203 210 208 212 216 228 225 221 212 215 216 215 212 211 210 214 211 209 205 203 201 197 195 193 192 193 193 192 192 192 192 194 197 200 204 204 205 211 213 219 222 227 235 239 246 253 256
189 199 204 206 204 204 208 227 219 219 218 222 224 221 219 216 215 217 217 215 211 206 204 201 198 198 198 198 197 196 199 198 199 199 200 204 207 209 210 216 221 223 223 227 232 240 245 249 253
191 205 207 199 202 198 210 231 217 215 219 224 224 223 220 217 216 217 217 216 211 208 205 203 202 203 202 201 200 200 202 203 203 202 204 207 209 210 214 221 226 225 224 228 230 238 245 254 257
192 198 203 203 195 204 214 225 214 209 218 224 225 225 220 221 218 214 211 210 209 208 207 205 203 206 203 199 198 198 203 207 207 207 209 209 211 212 216 222 228 227 226 230 230 236 239 253 263
192 194 199 205 195 208 221 228 227 222 225 226 226 226 221 222 215 206 207 202 201 202 204 205 202 202 200 197 198 200 205 205 207 210 212 211 213 212 215 221 228 226 230 236 238 239 243 245 249
194 198 197 190 194 213 225 234 234 231 233 231 229 227 223 221 214 208 205 200 201 200 201 200 201 201 200 203 200 202 202 205 207 205 210 212 213 212 213 220 224 225 233 239 239 234 240 242 222
196 203 200 189 182 212 227 238 232 230 232 235 235 234 229 223 220 212 204 199 200 200 201 198 198 201 203 202 196 183 184 192 200 205 207 210 212 213 215 220 226 228 229 238 239 234 236 245 234
200 209 203 187 187 206 211 236 225 222 225 228 229 228 228 222 220 216 210 201 197 200 197 196 194 196 199 199 200 200 205 210 211 206 200 201 207 212 219 224 228 230 230 237 240 237 237 243 245
187 178 194 198 207 220 210 235 237 210 225 227 226 226 227 224 220 217 213 204 192 187 188 186 184 185 190 198 202 208 214 214 202 195 196 199 198 208 220 229 231 233 235 239 243 242 238 238 244
145 141 141 179 205 232 218 223 246 216 224 225 225 225 225 225 223 218 212 196 186 177 176 173 173 173 178 187 194 201 205 201 196 198 201 203 202 203 219 233 236 238 240 243 245 245 244 243 246
177 169 170 185 205 227 194 219 246 240 230 231 230 228 226 224 223 217 208 198 189 181 173 169 169 168 169 173 181 188 194 197 205 205 206 207 208 210 219 233 242 246 249 250 247 243 243 243 244
192 205 217 204 202 198 190 227 242 252 248 247 247 245 237 228 221 215 208 200 190 181 174 170 169 167 166 166 167 168 173 182 193 200 200 204 211 215 227 232 238 246 251 251 246 243 242 243 241
181 210 243 303 180 219 214 239 262 244 240 238 238 239 234 226 219 212 202 195 187 180 176 171 167 161 159 161 160 158 162 169 173 176 180 187 192 200 226 231 234 247 260 255 244 233 229 218 223
225 180 179 201 208 224 220 231 228 197 216 225 230 230 226 215 208 201 191 182 177 171 166 165 162 155 151 151 149 144 151 156 162 168 169 167 164 172 189 196 207 228 269 220 186 179 176 146 114
182 189 199 204 240 241 227 215 178 234 245 247 247 236 219 203 193 185 177 170 165 161 160 159 156 150 148 147 142 140 136 133 139 144 145 146 144 147 158 153 146 132 112 111 132 131 130 125 106
213 209 196 202 211 228 251 251 103 272 293 275 267 243 207 190 182 176 169 166 164 163 162 159 158 155 150 145 142 137 132 134 136 131 127 125 126 120 116 118 118 104 97 104 122 117 113 117 113
Height
1529 1531 1533 1535 1534 1529 1523 1522 1523 1524 1525 1527 1527 1527 1524 1524 1525 1532 1533 1534 1537 1540 1544 1547 1551 1554 1556 1558 1560 1561 1562 1563 1563 1563 1563 1564 1564 1565 1565 1565 1565 1565 1566 1566 1566 1567 1567 1568 1568
1528 1530 1533 1533 1528 1526 1522 1520 1523 1523 1525 1527 1527 1527 1526 1526 1529 1529 1530 1534 1537 1541 1545 1548 1551 1554 1557 1559 1561 1562 1563 1564 1564 1565 1565 1565 1566 1567 1567 1567 1567 1568 1568 1568 1569 1569 1569 1570 1570
1526 1529 1532 1528 1524 1518 1517 1520 1521 1524 1526 1527 1526 1527 1527 1528 1529 1529 1530 1533 1538 1542 1546 1549 1552 1555 1558 1560 1562 1563 1564 1565 1566 1566 1566 1567 1568 1569 1569 1569 1570 1570 1570 1571 1571 1571 1572 1572 1573
1526 1529 1529 1524 1520 1516 1515 1518 1521 1523 1525 1526 1526 1526 1528 1529 1529 1529 1530 1534 1539 1543 1547 1549 1553 1556 1558 1561 1563 1564 1565 1566 1567 1567 1568 1569 1570 1571 1571 1571 1572 1572 1572 1573 1573 1574 1574 1575 1575
1524 1525 1523 1519 1515 1515 1518 1520 1522 1521 1522 1525 1525 1524 1527 1528 1527 1528 1531 1535 1540 1544 1548 1550 1554 1557 1559 1561 1563 1565 1566 1567 1568 1568 1570 1571 1572 1572 1573 1573 1574 1574 1575 1575 1576 1576 1577 1577 1577
1522 1520 1519 1515 1512 1514 1519 1522 1522 1521 1522 1524 1525 1524 1528 1528 1528 1529 1532 1537 1541 1544 1548 1551 1555 1558 1560 1562 1564 1565 1567 1568 1569 1570 1571 1572 1573 1574 1574 1575 1576 1576 1577 1577 1578 1578 1579 1579 1579
1518 1515 1511 1508 1509 1513 1517 1521 1521 1520 1521 1524 1525 1525 1528 1529 1529 1531 1534 1538 1542 1545 1549 1552 1555 1558 1561 1563 1564 1566 1567 1568 1570 1571 1572 1573 1574 1575 1576 1577 1577 1578 1578 1579 1579 1580 1580 1581 1581
1514 1514 1509 1506 1507 1511 1516 1520 1521 1521 1522 1524 1526 1525 1528 1530 1530 1533 1535 1539 1543 1546 1549 1552 1555 1558 1561 1563 1564 1566 1568 1569 1570 1571 1573 1574 1575 1576 1577 1578 1578 1579 1579 1580 1581 1581 1581 1582 1582
1513 1513 1507 1504 1506 1509 1515 1518 1521 1522 1523 1524 1526 1527 1528 1529 1531 1533 1536 1539 1543 1546 1549 1552 1555 1558 1560 1563 1564 1566 1568 1569 1570 1572 1573 1575 1576 1577 1578 1578 1579 1580 1580 1581 1581 1582 1582 1582 1583
1511 1507 1502 1504 1506 1509 1513 1516 1519 1521 1522 1524 1526 1526 1527 1529 1531 1533 1536 1538 1541 1545 1548 1551 1554 1557 1560 1562 1564 1566 1567 1569 1571 1572 1573 1575 1576 1577 1578 1578 1579 1580 1580 1581 1581 1582 1582 1583 1583
1507 1503 1503 1508 1510 1511 1513 1516 1518 1519 1520 1522 1524 1526 1527 1529 1532 1534 1536 1538 1541 1544 1547 1550 1553 1556 1559 1561 1563 1565 1567 1568 1570 1572 1573 1575 1576 1577 1578 1579 1579 1580 1580 1581 1581 1582 1582 1583 1583
1505 1504 1506 1509 1512 1513 1513 1515 1517 1518 1520 1522 1523 1525 1527 1529 1531 1533 1536 1538 1541 1543 1546 1549 1552 1555 1557 1560 1562 1564 1566 1567 1569 1570 1572 1574 1575 1576 1577 1578 1579 1580 1580 1581 1581 1581 1582 1582 1582
1504 1505 1508 1510 1511 1513 1514 1514 1515 1517 1519 1521 1522 1524 1526 1528 1531 1533 1535 1537 1539 1542 1544 1547 1550 1553 1556 1558 1560 1563 1565 1566 1568 1569 1571 1572 1573 1575 1576 1577 1578 1579 1579 1580 1580 1581 1581 1581 1581
1503 1505 1507 1509 1510 1512 1513 1513 1515 1515 1518 1520 1521 1523 1525 1527 1529 1531 1533 1535 1537 1540 1543 1545 1548 1551 1554 1556 1559 1561 1563 1565 1566 1567 1569 1570 1572 1573 1574 1575 1576 1577 1578 1578 1579 1579 1579 1579 1579
1504 1506 1507 1508 1509 1511 1513 1513 1511 1513 1516 1518 1519 1521 1523 1525 1527 1529 1531 1533 1535 1538 1541 1543 1546 1549 1551 1554 1557 1559 1561 1563 1564 1566 1567 1568 1570 1571 1572 1574 1574 1575 1576 1576 1577 1577 1577 1577 1577
1503 1505 1505 1505 1507 1509 1513 1507 1507 1512 1514 1515 1516 1518 1520 1522 1524 1526 1528 1530 1533 1536 1539 1541 1544 1546 1549 1552 1555 1557 1559 1561 1563 1564 1565 1566 1568 1569 1570 1571 1572 1573 1574 1574 1574 1575 1575 1575 1575
1501 1501 1501 1503 1505 1506 1508 1503 1504 1509 1511 1511 1513 1515 1517 1519 1521 1523 1525 1528 1530 1533 1536 1539 1541 1544 1547 1549 1552 1555 1557 1559 1560 1562 1563 1564 1566 1567 1568 1569 1570 1571 1571 1572 1572 1572 1572 1572 1572
1496 1496 1499 1500 1502 1504 1504 1502 1504 1506 1508 1508 1509 1512 1514 1516 1518 1520 1522 1524 1527 1530 1533 1536 1539 1541 1544 1547 1549 1552 1554 1556 1557 1559 1560 1562 1563 1564 1565 1566 1567 1568 1568 1568 1569 1569 1569 1569 1569
1496 1497 1498 1498 1501 1502 1501 1501 1501 1504 1505 1505 1506 1508 1510 1512 1515 1517 1519 1521 1524 1527 1530 1533 1536 1538 1541 1543 1545 1548 1550 1552 1554 1556 1557 1559 1560 1561 1562 1563 1564 1564 1565 1565 1566 1566 1565 1565 1565
1499 1499 1499 1501 1502 1502 1500 1499 1499 1500 1501 1502 1503 1504 1507 1509 1511 1513 1516 1518 1521 1524 1527 1530 1533 1535 1538 1540 1542 1545 1547 1549 1551 1552 1554 1555 1556 1557 1558 1559 1560 1560 1561 1561 1561 1562 1561 1561 1561
1499 1499 1498 1500 1502 1501 1501 1498 1495 1495 1497 1499 1500 1501 1503 1505 1507 1510 1512 1514 1517 1520 1523 1526 1529 1532 1535 1537 1539 1541 1543 1545 1547 1548 1549 1551 1552 1553 1554 1555 1555 1556 1556 1557 1557 1557 1557 1557 1557
1499 1500 1500 1500 1501 1499 1499 1493 1484 1486 1489 1492 1494 1496 1498 1501 1503 1506 1508 1511 1513 1516 1519 1523 1526 1528 1531 1533 1535 1537 1539 1541 1542 1544 1545 1546 1547 1548 1549 1550 1550 1551 1551 1551 1552 1552 1552 1552 1551
1500 1501 1501 1500 1499 1499 1497 1494 1480 1483 1484 1483 1486 1490 1493 1496 1499 1502 1504 1507 1510 1512 1515 1519 1522 1524 1527 1529 1531 1533 1535 1537 1538 1540 1541 1542 1543 1544 1544 1545 1545 1545 1545 1546 1546 1546 1546 1546 1546
1502 1503 1503 1501 1500 1501 1490 1492 1479 1475 1475 1476 1480 1484 1488 1491 1494 1497 1500 1502 1505 1508 1511 1514 1517 1520 1523 1525 1527 1529 1531 1533 1534 1535 1536 1537 1538 1538 1539 1539 1540 1540 1540 1540 1540 1540 1540 1539 1540
1502 1502 1502 1502 1501 1491 1487 1488 1476 1469 1472 1474 1476 1479 1483 1486 1488 1491 1494 1497 1501 1504 1507 1509 1513 1515 1518 1520 1523 1525 1526 1528 1530 1531 1532 1532 1533 1533 1533 1534 1534 1534 1534 1534 1534 1533 1533 1533 1533
1498 1497 1494 1490 1487 1483 1491 1483 1470 1470 1473 1474 1476 1477 1479 1481 1483 1486 1489 1492 1496 1499 1502 1505 1508 1511 1514 1516 1518 1520 1522 1523 1525 1526 1526 1527 1528 1528 1528 1528 1528 1528 1528 1528 1528 1527 1527 1527 1527
1497 1496 1494 1492 1489 1486 1480 1476 1470 1469 1470 1472 1473 1474 1475 1476 1478 1481 1484 1487 1490 1494 1498 1501 1505 1507 1510 1512 1514 1515 1517 1518 1519 1520 1521 1522 1522 1523 1523 1523 1523 1523 1522 1522 1522 1522 1521 1521 1521
1496 1493 1496 1494 1490 1481 1475 1472 1464 1464 1465 1467 1469 1470 1472 1473 1475 1477 1480 1482 1486 1490 1494 1497 1501 1503 1506 1508 1509 1511 1512 1514 1515 1515 1516 1517 1517 1518 1518 1518 1518 1518 1517 1517 1517 1517 1516 1516 1516
1496 1496 1491 1488 1486 1480 1473 1465 1462 1464 1465 1466 1467 1468 1470 1471 1472 1474 1476 1479 1483 1487 1490 1494 1497 1499 1502 1504 1505 1507 1508 1509 1510 1511 1511 1512 1512 1513 1513 1513 1513 1513 1513 1512 1512 1512 1512 1512 1512
1488 1487 1487 1487 1487 1482 1474 1467 1465 1466 1467 1467 1467 1468 1469 1470 1471 1473 1475 1478 1481 1485 1488 1491 1494 1496 1498 1500 1502 1503 1504 1505 1506 1506 1507 1508 1508 1508 1508 1508 1508 1508 1508 1508 1508 1508 1508 1508 1508